User: anonymous
Location: Unspecified
(0.0000°N, 0.0000°E)
Time: 00:18:20
(UTC+02:00)
Language:

Meteor PRIRODA - Orbit

View from above orbital plane
View from above orbital plane
View from above satellite
View from above satellite

Ground track
Ground track

The orbit data is extracted from the following two-line orbital elements,

1 12585U 81065A   14110.49616138  .00009805  00000-0  54475-3 0  7758
2 12585 097.3160 104.2213 0019048 104.8191 009.9209 15.13747207787264
Epoch (UTC): 20 April 2014 11:54:28
Eccentricity: 0.0019048
inclination: 97.3160°
perigee height: 511 km
apogee height: 538 km
right ascension of ascending node: 104.2213°
argument of perigee: 104.8191°
revolutions per day: 15.13747207
mean anomaly at epoch: 9.9209°
orbit number at epoch: 78726

The dashed part of the orbit path shows where the satellite is in the earth's shadow,  

DLR